World > North America > United States > Oregon > Halfway   City of Halfway, OR

Halfway, OR Hourly Weather Updates

Feedback E-mail the Weather

Quick Clicks

Halfway, OR Weather Maps

°F °C°F °C
Halfway Weather Map
UTC Time: 5/18/2024, 20:35
Your Time:

Halfway, OR Regional Weather

Expires:202405182100;;441697
ASUS46 KPQR 182010
RWROR 

OREGON REGIONAL WEATHER ROUNDUP
NATIONAL WEATHER SERVICE PORTLAND OR
100 PM PDT SAT MAY 18 2024

NOTE: "FAIR" INDICATES FEW OR NO CLOUDS BELOW 12,000 FEET WITH
NO SIGNIFICANT WEATHER AND/OR OBSTRUCTIONS TO VISIBILITY.


ORZ029>031-041-044-049-050-061>064-502-503-505>511-182100-
EASTERN OREGON

  
CITY           SKY/WX    TMP DP  RH WIND       PRES   REMARKS
MADRAS         SUNNY     63  23  22 NW6       29.99F                  
REDMOND        MOSUNNY   66  15  14 NW13G23   29.95F                  
BEND           MOSUNNY   64   7  10 NW12G18   29.95S                  
PRINEVILLE     MOSUNNY   64  16  15 NW14      29.96F                  
KLAMATH FALLS  SUNNY     69  30  23 SW15G21   29.97F                  
LAKEVIEW       SUNNY    N/A N/A N/A S7        29.98F                  
HERMISTON      SUNNY     69  32  25 W20G29    29.94F                  
PENDLETON      MOSUNNY   67  28  23 W17G25    29.94F                  
JOHN DAY       MOSUNNY   64  22  19 NW7       29.93F                  
MEACHAM        MOSUNNY   56  26  31 VRB3      29.96F                  
LA GRANDE      MOSUNNY   63  28  26 E8G16     29.93F                  
BAKER CITY     SUNNY     67  20  16 VRB3G18   29.92F                  
BURNS          SUNNY     67  20  16 SW12G17   29.95F                  
ROME             N/A     74  19  12 W13G21    29.91F                  
ONTARIO        SUNNY     69  24  18 CALM      29.92F                  
$$


OTHER REGIONAL REPORTS
  
CITY           SKY/WX    TMP DP  RH WIND       PRES   REMARKS
SEATTLE        LGT RAIN  55  40  56 W5        30.07S                  
SPOKANE        PTSUNNY   59  29  31 SW14G24   29.92F                  
VANCOUVER BC   PTSUNNY   55  46  71 W9        30.05F                  
PRINCE GEORGE  PTSUNNY   52  32  46 S3        29.89F                  
DAWSON CREEK   MOSUNNY   57  32  38 N10       29.78S                  
WHITEHORSE     PTSUNNY   59  28  31 N3        29.90F                  
BOISE          MOSUNNY   69  21  16 VRB5      29.91F                  
REDDING        SUNNY     86  48  26 CALM      29.83F                  
SAN FRANCISCO  MOSUNNY   66  51  58 S7        29.96F                  

$$

  

SKY/WX - Weather  TMP - Temperature  DP - Dew Point  RH - Humidity
WIND - Wind Direction/Speed PRES - Barometric Pressure VSB - Visibility
WCI - Wind Chill Index E13G22 Wind - East Wind 13 mph/Gusts of 22 mph

Trending Headlines

Trending Entertainment Headlines

Halfway Radar Loop

Use the map search tool if you want to place a location marker on the radar map...

Halfway Quick Facts

National Two Day Weather Forecast


E-mail the Halfway Weather Forecast

Voice your opinion or tell us about page issues...